Weather in Londrina

Brazil     23°17′51″S   51°09′36″W
temp.,
°C
wind,
m/s
gust,
m/s
humid.,
%
clouds,
%
prec.,
mm/h
press.,
hPa
HPBL,
m
18 september, sat
sat1800:00+19se37853 0.0 1015137
03:00+18ese39895 0.0 1014247
06:00+17ese389033 0.0 1015190
09:00+23e46635 0.0 1016368
12:00+31nne45345 0.0 10141046
15:00+34n2524100 0.0 10092141
18:00+29se113485 0.0 101011
21:00+25s22506 0.0 101223
19 september, sun
sun1900:00+22se22575 0.0 101219
03:00+22sse22586 0.0 101115
06:00+20ene22635 0.0 101330
09:00+27e46495 0.0 1015405
12:00+34ne453021 0.0 10131410
15:00+36nne32215 0.0 10093028
18:00+31e2229100 0.0 100914
21:00+26sse2240100 0.0 101220
20 september, mon
mon2000:00+24ese2448100 0.0 101266
03:00+22se24545 0.0 101267
06:00+21e36645 0.0 1013140
09:00+27ene59475 0.0 1014496
12:00+36ne55255 0.0 10121491
15:00+38nw24163 0.0 10083784
18:00+33nw112298 0.0 100817
21:00+28s22302 0.0 101011
21 september, tue
tue2100:00+26sse11340 0.0 101011
03:00+25ese11370 0.0 100911
06:00+22se11450 0.0 101011
09:00+30ese22290 0.0 1011346
12:00+38n25165 0.0 10092025
15:00+40w561097 0.0 10064515
18:00+33ssw3318100 0.0 100735
21:00+28sse815475 0.0 1010597
22 september, wed
wed2200:00+23ese71266100 0.0 1013702
03:00+18ese6137693 0.0 1013621
06:00+15ese6137774 0.0 1015612
09:00+19ese81254100 0.0 1017723
12:00+26e7930100 0.0 10161163
15:00+29e782524 0.0 10131419
18:00+24e6103274 0.0 1014780
21:00+19ese713430 0.0 1017613